COSMOS 2251 DEB, 37528

Orbit data source: Space-Track

COSMOS 2251 DEB, 37528 is space debris in LEO originally from a launch on Wed, 16 Jun 1993 UTC launched from the Plesetsk Missile And Space Complex (PKMTR). The debris from Iridium 33, an American commercial communications satellite, has been tracked extensively since its accidental collision with the defunct Russian satellite Cosmos 2251 in 2009. This event, occurring at high speed in low Earth orbit (LEO), generated thousands of pieces of space debris, significantly increasing the risk of further collisions. The Iridium 33 debris cloud has impacted space traffic management and orbital debris mitigation strategies, making it a subject of ongoing study in space situational awareness.

Loading next visibility...
Identifier
37528, 1993-036BNH
Orbit
LEO
Country
Flag of CISCIS
Related business
Manufacturer
Unknown
Mission
Spacecraft
Bus & Motor
Unknown
Mass
Unknown
Launch date (UTC)
1993-06-16 (33 years ago)
Launch vehicle
Unknown
Launch site
Plesetsk Missile And Space Complex (PKMTR)
Object type
Payload
Rocket body
Debris
Shape & HBR
Unknown shape, 0.1 m
Radar Cross Section
Small (<0.1 m²)

Expand to show TLE details & history
Last TLE update: 15 hours ago

TLE from 15 hours ago
0 COSMOS 2251 DEB
1 37528U 93036BNH 26264.80007694  .00000562  00000-0  14789-3 0  9995
2 37528  74.0366 309.8026 0019688  21.1572 339.0398 14.51270685900363
Epoch: 2026-09-21T19:12Z
TLE epoch observation values (Epoch: 2026-09-21T19:12:06.647Z)
Latitude
-0.0001°
Longitude
21.10016°
Altitude
711.079 km
Speed
7.507 km/s
True Right ascension
20h 39m 12s
True Declination
0° 00' 00"
Sunlit
Object was in full shadow at epoch
Visualization orbit readout
Latitude
Unknown
Longitude
Unknown
Altitude
Unknown
Speed
Unknown
Apparent Right ascension
Unknown
Apparent Declination
Unknown
Sunlit
N/A
Visualization observer readout
Local Sidereal Time
03:21:18
Azimuth
Unknown
Elevation
Unknown
Doppler factor
Unknown
Orbital elements
Apogee altitude
733.081 km
Perigee altitude
705.135 km
Semi-major axis
7,097.245 km
Eccentricity
0.00197
Inclination
74.0366°
RAAN
309.8026°
Arg. of periapsis
21.1572°
True anomaly
338.95891°
Mean anomaly
339.0398°
Eccentric anomaly
338.99937°
Mean motion
3.63002 °/min
Orbital period
99.17 mins
BSTAR
0.00014789

Documentation

Showing up to 5 results
|